Regional Weather Roundup
Issued by NWS

Home | Current Version | Previous Version | Graphics & Text | Print | Product List | Glossary On
Versions: 1 2 3 4 5 6 7 8 9 10 11 12 13 14 15 16 17 18 19 20 21 22 23 24 25 26 27 28 29 30 31 32 33 34 35 36 37 38 39 40 41 42 43 44 45 46 47 48 49 50
563
ASUS43 KLSX 200657
RWRMO

WEATHER SUMMARY FOR MISSOURI
NATIONAL WEATHER SERVICE SPRINGFIELD MO
200 AM CDT SUN MAY 20 2018

NOTE: "FAIR" INDICATES FEW OR NO CLOUDS BELOW 12,000 FEET WITH NO
       SIGNIFICANT WEATHER AND/OR OBSTRUCTIONS TO VISIBILITY.
       CURRENT SKY AND/OR WEATHER CONDITIONS ARE NOT AVAILABLE FOR
       CHILLICOTHE AND FARMINGTON.

MOZ001>031-035>038-043-044-053-054-200800-
...NORTHERN AND WESTERN MISSOURI...

CITY           SKY/WX    TMP DP  RH WIND       PRES   REMARKS
KANSAS CTY INT PTCLDY    66  62  87 NE10      29.96F
LEE`S SUMMIT   CLOUDY    66  63  90 S9        29.98R
ST JOSEPH      PTCLDY    65  60  84 N9        29.97F
CHILLICOTHE      N/A     68  65  90 VRB3      29.97F

$$
MOZ066>068-077>081-088>096-101>105-200800-
...SOUTHWEST MISSOURI...

CITY           SKY/WX    TMP DP  RH WIND       PRES   REMARKS
SPRINGFIELD    CLOUDY    71  63  75 SE15      29.95F
JOPLIN         CLOUDY    68  61  78 E6        29.98F THUNDER

$$
MOZ032>034-039>042-045>050-055>058-069>072-200800-
...CENTRAL MISSOURI...

CITY           SKY/WX    TMP DP  RH WIND       PRES   REMARKS
COLUMBIA       NOT AVBL
JEFFERSON CITY CLOUDY    64  60  87 N5        29.96F
ROLLA          CLOUDY    62  59  90 S6        29.99F
SEDALIA        MOCLDY    65  63  93 S14       29.96F
WARRENSBURG    CLOUDY    63  61  94 S7        29.94F

$$
MOZ051-052-059>065-200800-
...EAST CENTRAL MISSOURI...

CITY           SKY/WX    TMP DP  RH WIND       PRES   REMARKS
ST LOUIS INTL  CLOUDY    65  63  93 N6        29.98R

$$
MOZ072>076-082>087-097>100-106>115-200800-
...SOUTH CENTRAL AND SOUTHEAST MISSOURI...

CITY           SKY/WX    TMP DP  RH WIND       PRES   REMARKS
CAPE GIRARDEAU FAIR      66  62  87 S8        29.98F
POPLAR BLUFF   FAIR      67  64  90 SE5       30.00F
WEST PLAINS    CLEAR     67  61  81 SE6       30.03F

$$




USA.gov is the U.S. government's official web portal to all federal, state and local government web resources and services.